Time,TemperatureF,DewpointF,PressureIn,WindDirection,WindDirectionDegrees,WindSpeedMPH,WindSpeedGustMPH,Humidity,HourlyPrecipIn,Conditions,Clouds,dailyrainin,SoftwareType,DateUTC
2013-10-04 00:03:00,74.3,72.0,29.90,SE,142,0.0,1.0,91,0.00,,,0.00,weatherlink.com 1.10,2013-10-04 05:03:00,
2013-10-04 00:18:00,74.0,71.0,29.90,SE,142,0.0,1.0,91,0.00,,,0.00,weatherlink.com 1.10,2013-10-04 05:18:00,
2013-10-04 00:33:00,73.7,71.0,29.90,SE,142,0.0,1.0,91,0.00,,,0.00,weatherlink.com 1.10,2013-10-04 05:33:00,
2013-10-04 00:48:00,73.3,71.0,29.90,SE,142,0.0,1.0,91,0.00,,,0.00,weatherlink.com 1.10,2013-10-04 05:48:00,
2013-10-04 01:03:00,73.0,71.0,29.90,SE,142,0.0,0.0,92,0.00,,,0.00,weatherlink.com 1.10,2013-10-04 06:03:00,
2013-10-04 01:18:00,72.7,70.0,29.90,SE,142,0.0,0.0,92,0.00,,,0.00,weatherlink.com 1.10,2013-10-04 06:18:00,
2013-10-04 01:33:00,72.4,70.0,29.90,SE,142,0.0,1.0,93,0.00,,,0.00,weatherlink.com 1.10,2013-10-04 06:33:00,
2013-10-04 01:48:00,72.3,70.0,29.90,SE,142,0.0,0.0,93,0.00,,,0.00,weatherlink.com 1.10,2013-10-04 06:48:00,
2013-10-04 02:03:00,72.2,70.0,29.90,SE,142,0.0,0.0,94,0.00,,,0.00,weatherlink.com 1.10,2013-10-04 07:03:00,
2013-10-04 02:33:00,72.3,71.0,29.89,SSE,154,0.0,2.0,95,0.00,,,0.00,weatherlink.com 1.10,2013-10-04 07:33:00,
2013-10-04 02:48:00,72.1,71.0,29.89,SSE,154,0.0,1.0,95,0.00,,,0.00,weatherlink.com 1.10,2013-10-04 07:48:00,
2013-10-04 03:03:00,72.0,71.0,29.89,SSE,154,0.0,0.0,95,0.00,,,0.00,weatherlink.com 1.10,2013-10-04 08:03:00,
2013-10-04 03:18:00,71.9,71.0,29.89,SSE,154,0.0,0.0,95,0.00,,,0.00,weatherlink.com 1.10,2013-10-04 08:18:00,
2013-10-04 03:33:00,71.8,70.0,29.88,SSE,154,0.0,0.0,95,0.00,,,0.00,weatherlink.com 1.10,2013-10-04 08:33:00,
2013-10-04 03:48:00,71.7,70.0,29.89,SSE,154,0.0,0.0,95,0.00,,,0.00,weatherlink.com 1.10,2013-10-04 08:48:00,
2013-10-04 04:03:00,71.5,70.0,29.88,SSE,154,0.0,0.0,95,0.00,,,0.00,weatherlink.com 1.10,2013-10-04 09:03:00,
2013-10-04 04:18:00,71.3,70.0,29.88,SSE,154,0.0,0.0,95,0.00,,,0.00,weatherlink.com 1.10,2013-10-04 09:18:00,
2013-10-04 04:33:00,71.2,70.0,29.88,SSE,154,0.0,0.0,95,0.00,,,0.00,weatherlink.com 1.10,2013-10-04 09:33:00,
2013-10-04 04:48:00,71.0,70.0,29.88,SSE,154,0.0,0.0,95,0.00,,,0.00,weatherlink.com 1.10,2013-10-04 09:48:00,
2013-10-04 05:03:00,70.9,70.0,29.89,SSE,154,0.0,0.0,95,0.00,,,0.00,weatherlink.com 1.10,2013-10-04 10:03:00,
2013-10-04 05:18:00,70.9,70.0,29.89,SSE,154,0.0,0.0,96,0.00,,,0.00,weatherlink.com 1.10,2013-10-04 10:18:00,
2013-10-04 05:33:00,70.8,69.0,29.89,SSE,154,0.0,0.0,95,0.00,,,0.00,weatherlink.com 1.10,2013-10-04 10:33:00,
2013-10-04 05:48:00,70.8,70.0,29.89,SSE,154,0.0,0.0,96,0.00,,,0.00,weatherlink.com 1.10,2013-10-04 10:48:00,
2013-10-04 06:03:00,70.9,70.0,29.90,SSE,154,0.0,0.0,96,0.00,,,0.00,weatherlink.com 1.10,2013-10-04 11:03:00,
2013-10-04 06:18:00,70.9,70.0,29.89,SSE,154,0.0,0.0,96,0.00,,,0.00,weatherlink.com 1.10,2013-10-04 11:18:00,
2013-10-04 06:33:00,71.0,70.0,29.90,SSE,154,0.0,0.0,96,0.00,,,0.00,weatherlink.com 1.10,2013-10-04 11:33:00,
2013-10-04 06:48:00,71.0,70.0,29.90,SSE,154,0.0,0.0,96,0.00,,,0.00,weatherlink.com 1.10,2013-10-04 11:48:00,
2013-10-04 07:03:00,71.0,70.0,29.91,SSE,154,0.0,0.0,96,0.00,,,0.00,weatherlink.com 1.10,2013-10-04 12:03:00,
2013-10-04 07:18:00,71.0,70.0,29.91,SSE,154,0.0,0.0,96,0.00,,,0.00,weatherlink.com 1.10,2013-10-04 12:18:00,
2013-10-04 07:33:00,71.1,70.0,29.91,SSE,154,0.0,0.0,96,0.00,,,0.00,weatherlink.com 1.10,2013-10-04 12:33:00,
2013-10-04 07:49:00,71.4,70.0,29.91,SSE,154,0.0,0.0,96,0.00,,,0.00,weatherlink.com 1.10,2013-10-04 12:49:00,
2013-10-04 08:04:00,71.8,71.0,29.91,SSE,154,0.0,0.0,97,0.00,,,0.00,weatherlink.com 1.10,2013-10-04 13:04:00,
2013-10-04 08:19:00,72.2,71.0,29.91,SSE,154,0.0,0.0,97,0.00,,,0.00,weatherlink.com 1.10,2013-10-04 13:19:00,
2013-10-04 08:34:00,72.9,72.0,29.92,SSE,154,0.0,0.0,97,0.00,,,0.00,weatherlink.com 1.10,2013-10-04 13:34:00,
2013-10-04 08:49:00,73.3,72.0,29.92,SSE,154,0.0,0.0,97,0.00,,,0.00,weatherlink.com 1.10,2013-10-04 13:49:00,
2013-10-04 09:04:00,73.7,73.0,29.92,SSE,154,0.0,0.0,97,0.00,,,0.00,weatherlink.com 1.10,2013-10-04 14:04:00,
2013-10-04 09:19:00,74.6,74.0,29.93,SSE,154,0.0,0.0,97,0.00,,,0.00,weatherlink.com 1.10,2013-10-04 14:19:00,
2013-10-04 09:34:00,74.7,74.0,29.93,SSE,167,0.0,1.0,97,0.00,,,0.00,weatherlink.com 1.10,2013-10-04 14:34:00,
2013-10-04 09:49:00,75.0,74.0,29.94,SSE,167,0.0,1.0,97,0.00,,,0.00,weatherlink.com 1.10,2013-10-04 14:49:00,
2013-10-04 10:04:00,75.3,74.0,29.94,SSE,167,0.0,2.0,97,0.00,,,0.00,weatherlink.com 1.10,2013-10-04 15:04:00,
2013-10-04 10:19:00,75.7,75.0,29.93,SSE,167,0.0,2.0,97,0.00,,,0.00,weatherlink.com 1.10,2013-10-04 15:19:00,
2013-10-04 10:34:00,77.3,76.0,29.93,SSE,166,0.0,1.0,97,0.00,,,0.00,weatherlink.com 1.10,2013-10-04 15:34:00,
2013-10-04 10:49:00,78.3,76.0,29.93,North,355,1.0,4.0,93,0.00,,,0.00,weatherlink.com 1.10,2013-10-04 15:49:00,
2013-10-04 11:04:00,79.3,76.0,29.93,North,355,0.0,4.0,90,0.00,,,0.00,weatherlink.com 1.10,2013-10-04 16:04:00,
2013-10-04 11:19:00,79.2,76.0,29.93,North,5,0.0,4.0,90,0.00,,,0.00,weatherlink.com 1.10,2013-10-04 16:19:00,
2013-10-04 11:34:00,79.2,76.0,29.93,North,355,0.0,3.0,90,0.00,,,0.00,weatherlink.com 1.10,2013-10-04 16:34:00,
2013-10-04 11:49:00,79.4,76.0,29.92,NE,37,2.0,3.0,89,0.00,,,0.00,weatherlink.com 1.10,2013-10-04 16:49:00,
2013-10-04 12:04:00,81.2,77.0,29.92,NNW,330,0.0,2.0,88,0.00,,,0.00,weatherlink.com 1.10,2013-10-04 17:04:00,
2013-10-04 12:19:00,82.5,78.0,29.92,ENE,75,1.0,2.0,87,0.00,,,0.00,weatherlink.com 1.10,2013-10-04 17:19:00,
2013-10-04 12:34:00,85.6,76.0,29.92,NNE,30,1.0,5.0,74,0.00,,,0.00,weatherlink.com 1.10,2013-10-04 17:34:00,
2013-10-04 13:04:00,86.4,77.0,29.91,ENE,67,1.0,4.0,73,0.00,,,0.00,weatherlink.com 1.10,2013-10-04 18:04:00,
2013-10-04 13:19:00,86.6,78.0,29.90,NW,318,1.0,3.0,75,0.00,,,0.00,weatherlink.com 1.10,2013-10-04 18:19:00,
2013-10-04 13:34:00,84.5,77.0,29.89,NNE,15,1.0,6.0,79,0.00,,,0.00,weatherlink.com 1.10,2013-10-04 18:34:00,
2013-10-04 13:49:00,85.1,76.0,29.89,SW,227,0.0,4.0,74,0.00,,,0.00,weatherlink.com 1.10,2013-10-04 18:49:00,
2013-10-04 14:04:00,85.8,77.0,29.88,North,350,0.0,6.0,76,0.00,,,0.00,weatherlink.com 1.10,2013-10-04 19:04:00,
2013-10-04 14:19:00,85.5,78.0,29.87,North,355,2.0,6.0,77,0.00,,,0.00,weatherlink.com 1.10,2013-10-04 19:19:00,
2013-10-04 14:34:00,86.6,76.0,29.87,SW,227,2.0,7.0,71,0.00,,,0.00,weatherlink.com 1.10,2013-10-04 19:34:00,
2013-10-04 14:49:00,88.3,76.0,29.86,SW,221,1.0,6.0,66,0.00,,,0.00,weatherlink.com 1.10,2013-10-04 19:49:00,
2013-10-04 15:04:00,87.9,76.0,29.86,ESE,103,0.0,5.0,68,0.00,,,0.00,weatherlink.com 1.10,2013-10-04 20:04:00,
2013-10-04 15:19:00,86.5,77.0,29.86,East,96,0.0,7.0,73,0.00,,,0.00,weatherlink.com 1.10,2013-10-04 20:19:00,
2013-10-04 15:34:00,86.4,77.0,29.86,NE,54,0.0,3.0,73,0.00,,,0.00,weatherlink.com 1.10,2013-10-04 20:34:00,
2013-10-04 15:49:00,88.8,76.0,29.86,WNW,296,0.0,5.0,67,0.00,,,0.00,weatherlink.com 1.10,2013-10-04 20:49:00,
2013-10-04 16:04:00,87.7,77.0,29.86,East,95,6.0,11.0,71,0.00,,,0.00,weatherlink.com 1.10,2013-10-04 21:04:00,
2013-10-04 16:19:00,86.1,78.0,29.86,NNW,341,4.0,11.0,76,0.00,,,0.00,weatherlink.com 1.10,2013-10-04 21:19:00,
2013-10-04 16:35:00,85.1,78.0,29.86,NNE,17,1.0,4.0,78,0.00,,,0.00,weatherlink.com 1.10,2013-10-04 21:35:00,
2013-10-04 16:50:00,85.6,78.0,29.86,NNE,32,2.0,6.0,78,0.00,,,0.00,weatherlink.com 1.10,2013-10-04 21:50:00,
2013-10-04 17:05:00,86.5,77.0,29.85,North,5,5.0,5.0,73,0.00,,,0.00,weatherlink.com 1.10,2013-10-04 22:05:00,
2013-10-04 17:20:00,85.9,76.0,29.86,NW,311,1.0,7.0,73,0.00,,,0.00,weatherlink.com 1.10,2013-10-04 22:20:00,
2013-10-04 17:35:00,85.6,77.0,29.86,SE,134,3.0,5.0,76,0.00,,,0.00,weatherlink.com 1.10,2013-10-04 22:35:00,
2013-10-04 17:50:00,85.6,77.0,29.86,South,187,0.0,5.0,76,0.00,,,0.00,weatherlink.com 1.10,2013-10-04 22:50:00,
2013-10-04 18:05:00,84.9,77.0,29.86,SSE,161,0.0,5.0,78,0.00,,,0.00,weatherlink.com 1.10,2013-10-04 23:05:00,
2013-10-04 18:20:00,84.7,77.0,29.86,ESE,104,0.0,4.0,78,0.00,,,0.00,weatherlink.com 1.10,2013-10-04 23:20:00,
2013-10-04 18:35:00,84.4,77.0,29.86,South,177,0.0,4.0,78,0.00,,,0.00,weatherlink.com 1.10,2013-10-04 23:35:00,
2013-10-04 18:50:00,83.6,77.0,29.86,ESE,103,0.0,3.0,79,0.00,,,0.00,weatherlink.com 1.10,2013-10-04 23:50:00,
2013-10-04 19:05:00,82.9,76.0,29.86,East,89,0.0,3.0,80,0.00,,,0.00,weatherlink.com 1.10,2013-10-05 00:05:00,
2013-10-04 19:20:00,82.0,76.0,29.87,WSW,238,1.0,3.0,82,0.00,,,0.00,weatherlink.com 1.10,2013-10-05 00:20:00,
2013-10-04 19:35:00,81.3,76.0,29.88,ESE,106,0.0,2.0,83,0.00,,,0.00,weatherlink.com 1.10,2013-10-05 00:35:00,
2013-10-04 19:50:00,80.7,75.0,29.88,NE,43,0.0,2.0,83,0.00,,,0.00,weatherlink.com 1.10,2013-10-05 00:50:00,
2013-10-04 20:05:00,80.3,75.0,29.88,East,86,0.0,1.0,84,0.00,,,0.00,weatherlink.com 1.10,2013-10-05 01:05:00,
2013-10-04 20:20:00,79.7,75.0,29.89,NNE,24,0.0,2.0,84,0.00,,,0.00,weatherlink.com 1.10,2013-10-05 01:20:00,
2013-10-04 20:35:00,79.3,75.0,29.90,SE,137,1.0,4.0,85,0.00,,,0.00,weatherlink.com 1.10,2013-10-05 01:35:00,
2013-10-04 20:50:00,78.9,74.0,29.90,South,190,0.0,2.0,86,0.00,,,0.00,weatherlink.com 1.10,2013-10-05 01:50:00,
2013-10-04 21:05:00,78.7,74.0,29.90,SE,126,1.0,2.0,86,0.00,,,0.00,weatherlink.com 1.10,2013-10-05 02:05:00,
2013-10-04 21:20:00,78.4,74.0,29.91,SE,124,0.0,5.0,87,0.00,,,0.00,weatherlink.com 1.10,2013-10-05 02:20:00,
2013-10-04 21:35:00,78.2,74.0,29.91,SSE,154,0.0,3.0,88,0.00,,,0.00,weatherlink.com 1.10,2013-10-05 02:35:00,
2013-10-04 21:50:00,77.9,74.0,29.90,SE,146,0.0,2.0,88,0.00,,,0.00,weatherlink.com 1.10,2013-10-05 02:50:00,
2013-10-04 22:05:00,77.7,74.0,29.91,SE,145,0.0,2.0,89,0.00,,,0.00,weatherlink.com 1.10,2013-10-05 03:05:00,
2013-10-04 22:20:00,77.5,74.0,29.91,SE,136,0.0,1.0,89,0.00,,,0.00,weatherlink.com 1.10,2013-10-05 03:20:00,
2013-10-04 22:35:00,77.2,74.0,29.91,SE,136,0.0,0.0,89,0.00,,,0.00,weatherlink.com 1.10,2013-10-05 03:35:00,
2013-10-04 22:50:00,76.8,74.0,29.91,SE,135,0.0,2.0,90,0.00,,,0.00,weatherlink.com 1.10,2013-10-05 03:50:00,
2013-10-04 23:05:00,76.6,74.0,29.91,SE,134,0.0,1.0,91,0.00,,,0.00,weatherlink.com 1.10,2013-10-05 04:05:00,
2013-10-04 23:20:00,76.6,74.0,29.91,NE,51,0.0,2.0,91,0.00,,,0.00,weatherlink.com 1.10,2013-10-05 04:20:00,
2013-10-04 23:35:00,76.6,74.0,29.91,SE,138,1.0,2.0,91,0.00,,,0.00,weatherlink.com 1.10,2013-10-05 04:35:00,
2013-10-04 23:50:00,76.5,74.0,29.91,ENE,75,0.0,1.0,91,0.00,,,0.00,weatherlink.com 1.10,2013-10-05 04:50:00,